When you browse on this site, cookies collect data to enhance your experience and personalize the content and advertising you see.
Visit our Privacy Policy to learn more. By continuing to use the site, you agree to this use of cookies and data.

Hourly Weather Carambei

Today, 5 July, Sunday

Time Temperature Precipitation Wind Pressure Humidity
00:00 +10°C° 0 mm 1 mps 666 mmHg 89%
01:00 +10°C° 0 mm 1 mps 666 mmHg 90%
02:00 +10°C° 0 mm 1 mps 666 mmHg 90%
03:00 +10°C° 0 mm 1 mps 666 mmHg 91%
04:00 +11°C° 0 mm 1 mps 666 mmHg 88%
05:00 +11°C° 0 mm 1 mps 666 mmHg 84%
06:00 +12°C° 0 mm 1 mps 666 mmHg 81%
07:00 +13°C° 0 mm 1 mps 667 mmHg 79%
08:00 +14°C° 0 mm 1 mps 667 mmHg 78%
09:00 +15°C° 0 mm 1 mps 668 mmHg 76%
10:00 +16°C° 0 mm 2 mps 668 mmHg 74%
11:00 +17°C° 0 mm 2 mps 668 mmHg 72%
12:00 +17°C° 0 mm 2 mps 668 mmHg 71%
13:00 +18°C° 0 mm 2 mps 668 mmHg 69%
14:00 +18°C° 0 mm 2 mps 667 mmHg 68%
15:00 +19°C° 0 mm 2 mps 667 mmHg 66%
16:00 +18°C° 0 mm 2 mps 667 mmHg 71%
17:00 +16°C° 0 mm 2 mps 667 mmHg 75%
18:00 +15°C° 0 mm 2 mps 666 mmHg 79%
19:00 +14°C° 0 mm 2 mps 666 mmHg 81%
20:00 +14°C° 0 mm 2 mps 666 mmHg 84%
21:00 +13°C° 0 mm 2 mps 667 mmHg 87%
22:00 +13°C° 0 mm 2 mps 667 mmHg 86%
23:00 +14°C° 0 mm 2 mps 667 mmHg 86%

Tomorrow, 6 July, Monday

Time Temperature Precipitation Wind Pressure Humidity
00:00 +14°C° 0 mm 2 mps 667 mmHg 86%
01:00 +14°C° 0 mm 1 mps 667 mmHg 86%
02:00 +14°C° 0 mm 1 mps 666 mmHg 86%
03:00 +14°C° 0 mm 1 mps 666 mmHg 86%
04:00 +14°C° 0 mm 1 mps 666 mmHg 87%
05:00 +13°C° 0 mm 1 mps 666 mmHg 88%
06:00 +13°C° 0 mm 1 mps 667 mmHg 89%
07:00 +14°C° 0 mm 1 mps 667 mmHg 89%
08:00 +14°C° 0 mm 1 mps 667 mmHg 88%
09:00 +14°C° 0 mm 1 mps 668 mmHg 88%
10:00 +15°C° 0 mm 1 mps 668 mmHg 85%
11:00 +16°C° 0 mm 1 mps 668 mmHg 82%
12:00 +18°C° 0 mm 1 mps 668 mmHg 80%
13:00 +19°C° 0.1 mm 1 mps 668 mmHg 77%
14:00 +19°C° 0.1 mm 2 mps 668 mmHg 74%
15:00 +20°C° 0.1 mm 2 mps 668 mmHg 72%
16:00 +19°C° 0.3 mm 2 mps 667 mmHg 78%
17:00 +17°C° 0.3 mm 2 mps 667 mmHg 85%
18:00 +16°C° 0.3 mm 2 mps 667 mmHg 92%
19:00 +15°C° 0 mm 2 mps 667 mmHg 93%
20:00 +15°C° 0 mm 2 mps 667 mmHg 94%
21:00 +14°C° 0 mm 2 mps 667 mmHg 95%
22:00 +14°C° 0 mm 2 mps 667 mmHg 95%
23:00 +15°C° 0 mm 2 mps 667 mmHg 95%

Day after tomorrow, 7 July, Tuesday

Time Temperature Precipitation Wind Pressure Humidity
00:00 +15°C° 0 mm 2 mps 667 mmHg 95%
01:00 +15°C° 0 mm 2 mps 667 mmHg 95%
02:00 +15°C° 0 mm 2 mps 666 mmHg 94%
03:00 +15°C° 0 mm 2 mps 666 mmHg 94%
04:00 +14°C° 0 mm 2 mps 665 mmHg 94%
05:00 +14°C° 0 mm 2 mps 665 mmHg 94%
06:00 +13°C° 0 mm 2 mps 665 mmHg 94%
07:00 +15°C° 0 mm 2 mps 665 mmHg 90%
08:00 +16°C° 0 mm 3 mps 665 mmHg 85%
09:00 +17°C° 0 mm 4 mps 666 mmHg 81%
10:00 +18°C° 0 mm 4 mps 666 mmHg 73%
11:00 +20°C° 0 mm 5 mps 666 mmHg 65%
12:00 +22°C° 0 mm 6 mps 666 mmHg 57%
13:00 +22°C° 0 mm 6 mps 665 mmHg 58%
14:00 +22°C° 0 mm 6 mps 665 mmHg 59%
15:00 +22°C° 0 mm 5 mps 664 mmHg 59%
16:00 +20°C° 0 mm 5 mps 664 mmHg 66%
17:00 +18°C° 0 mm 4 mps 663 mmHg 72%
18:00 +17°C° 0 mm 3 mps 663 mmHg 79%
19:00 +16°C° 0 mm 3 mps 663 mmHg 80%
20:00 +16°C° 0 mm 3 mps 663 mmHg 82%
21:00 +16°C° 0 mm 3 mps 663 mmHg 84%
22:00 +16°C° 0.1 mm 3 mps 663 mmHg 83%
23:00 +14°C° 0.1 mm 3 mps 663 mmHg 83%

8 July, Wednesday

Time Temperature Precipitation Wind Pressure Humidity
00:00 +14°C° 0.1 mm 3 mps 663 mmHg 83%
01:00 +16°C° 0 mm 3 mps 663 mmHg 81%
02:00 +16°C° 0 mm 3 mps 663 mmHg 79%
03:00 +16°C° 0 mm 3 mps 662 mmHg 78%
04:00 +16°C° 0.3 mm 3 mps 662 mmHg 81%
05:00 +14°C° 0.3 mm 4 mps 662 mmHg 85%
06:00 +14°C° 0.3 mm 4 mps 662 mmHg 89%
07:00 +14°C° 0 mm 5 mps 663 mmHg 88%
08:00 +15°C° 0 mm 5 mps 663 mmHg 86%
09:00 +15°C° 0 mm 6 mps 664 mmHg 85%
10:00 +15°C° 0.1 mm 5 mps 664 mmHg 86%
11:00 +15°C° 0.1 mm 4 mps 664 mmHg 87%
12:00 +15°C° 0.1 mm 4 mps 664 mmHg 89%
13:00 +17°C° 0.1 mm 4 mps 664 mmHg 85%
14:00 +17°C° 0.1 mm 4 mps 664 mmHg 82%
15:00 +18°C° 0.1 mm 4 mps 663 mmHg 79%
16:00 +17°C° 0.1 mm 3 mps 663 mmHg 82%
17:00 +16°C° 0.1 mm 3 mps 664 mmHg 85%
18:00 +14°C° 0.1 mm 3 mps 664 mmHg 87%
19:00 +14°C° 0 mm 2 mps 664 mmHg 89%
20:00 +13°C° 0 mm 2 mps 665 mmHg 90%
21:00 +12°C° 0 mm 2 mps 665 mmHg 92%
22:00 +12°C° 0 mm 2 mps 665 mmHg 92%
23:00 +10°C° 0 mm 2 mps 665 mmHg 92%

9 July, Thursday

Time Temperature Precipitation Wind Pressure Humidity
00:00 +10°C° 0 mm 2 mps 665 mmHg 93%
01:00 +9°C° 0 mm 2 mps 665 mmHg 94%
02:00 +8°C° 0 mm 2 mps 665 mmHg 95%
03:00 +8°C° 0 mm 1 mps 665 mmHg 96%
04:00 +7°C° 0 mm 1 mps 665 mmHg 96%
05:00 +7°C° 0 mm 1 mps 665 mmHg 96%
06:00 +6°C° 0 mm 1 mps 665 mmHg 95%
07:00 +7°C° 0 mm 1 mps 666 mmHg 90%
08:00 +6°C° 0 mm 2 mps 667 mmHg 85%
09:00 +7°C° 0 mm 2 mps 667 mmHg 79%
10:00 +8°C° 0 mm 2 mps 668 mmHg 69%
11:00 +10°C° 0 mm 2 mps 668 mmHg 59%
12:00 +13°C° 0 mm 2 mps 668 mmHg 49%
13:00 +13°C° 0 mm 2 mps 668 mmHg 47%
14:00 +14°C° 0 mm 1 mps 668 mmHg 45%
15:00 +15°C° 0 mm 1 mps 668 mmHg 43%
16:00 +13°C° 0 mm 1 mps 667 mmHg 49%
17:00 +11°C° 0 mm 1 mps 667 mmHg 54%
18:00 +9°C° 0 mm 1 mps 667 mmHg 60%
19:00 +8°C° 0 mm 1 mps 667 mmHg 61%
20:00 +8°C° 0 mm 1 mps 667 mmHg 62%
21:00 +7°C° 0 mm 1 mps 667 mmHg 63%
22:00 +7°C° 0 mm 1 mps 668 mmHg 65%
23:00 +6°C° 0 mm 1 mps 668 mmHg 67%

10 July, Friday

Time Temperature Precipitation Wind Pressure Humidity
00:00 +6°C° 0 mm 1 mps 668 mmHg 69%
01:00 +5°C° 0 mm 1 mps 667 mmHg 75%
02:00 +5°C° 0 mm 1 mps 667 mmHg 82%
03:00 +4°C° 0 mm 1 mps 667 mmHg 88%
04:00 +5°C° 0 mm 1 mps 667 mmHg 90%
05:00 +5°C° 0 mm 1 mps 667 mmHg 93%
06:00 +5°C° 0 mm 1 mps 668 mmHg 95%
07:00 +6°C° 0 mm 1 mps 668 mmHg 91%
08:00 +7°C° 0 mm 1 mps 669 mmHg 87%
09:00 +9°C° 0 mm 1 mps 669 mmHg 83%
10:00 +11°C° 0 mm 1 mps 670 mmHg 73%
11:00 +14°C° 0 mm 1 mps 670 mmHg 63%
12:00 +16°C° 0 mm 1 mps 670 mmHg 53%
13:00 +18°C° 0 mm 1 mps 670 mmHg 54%
14:00 +19°C° 0 mm 1 mps 670 mmHg 54%
15:00 +19°C° 0 mm 2 mps 669 mmHg 54%
16:00 +18°C° 0 mm 1 mps 669 mmHg 63%
17:00 +14°C° 0 mm 1 mps 668 mmHg 72%
18:00 +12°C° 0 mm 1 mps 668 mmHg 81%
19:00 +12°C° 0 mm 1 mps 668 mmHg 84%
20:00 +11°C° 0 mm 1 mps 668 mmHg 87%
21:00 +10°C° 0 mm 1 mps 668 mmHg 90%
22:00 +9°C° 0 mm 0 mps 668 mmHg 90%
23:00 +9°C° 0 mm 0 mps 668 mmHg 91%
Show more